Hourly Data Report for October 19, 2015

All times are specified in Local Standard Time (LST). Add 1 hour to adjust for Daylight Saving Time where and when it is observed.

TORONTO INTL A
ONTARIO

43°40'36.000" N
79°37'50.000" W
173.40 m
6158731
71624
YYZ

Download Data

Hourly Data (October 2015)
Hourly Data Report for October 19, 2015
Temp Definition
°C
Dew Point Temp Definition
°C
Rel Hum Definition
%
Wind Dir Definition
10's deg

Wind Spd Definition
km/h
Visibility Definition
km
Stn Press Definition
kPa
Hmdx Definition


Wind Chill Definition


Weather Definition


TIME
00:00 Legend Double Dagger -0.3 -4.8 72 26 7 24.1 100.81   -3 LegendNANA
01:00 Legend Double Dagger -0.9 -4.3 78 24 8 24.1 100.80   -4 Mainly Clear
02:00 Legend Double Dagger -1.4 -4.8 78 25 7 24.1 100.83   -4 LegendNANA
03:00 Legend Double Dagger -0.9 -5.0 74 27 3 24.1 100.80   -2 LegendNANA
04:00 Legend Double Dagger -0.6 -5.6 69 23 8 24.1 100.80   -3 Mainly Clear
05:00 Legend Double Dagger 0.0 -5.8 65 23 8 24.1 100.81   -3 LegendNANA
06:00 Legend Double Dagger 0.6 -5.9 62 18 5 24.1 100.72     LegendNANA
07:00 Legend Double Dagger 1.2 -5.3 62 20 5 24.1 100.67     Mainly Clear
08:00 Legend Double Dagger 3.3 -2.9 64 20 5 24.1 100.62     LegendNANA
09:00 Legend Double Dagger 6.7 0.6 65 21 20 24.1 100.56     LegendNANA
10:00 Legend Double Dagger 9.2 1.6 59 21 29 24.1 100.41     Mainly Clear
11:00 Legend Double Dagger 11.3 1.6 51 22 30 24.1 100.28     LegendNANA
12:00 Legend Double Dagger 12.7 2.0 48 22 31 24.1 100.12     LegendNANA
13:00 Legend Double Dagger 14.6 2.6 44 21 29 24.1 99.94     Mostly Cloudy
14:00 Legend Double Dagger 15.6 1.8 39 21 35 24.1 99.81     LegendNANA
15:00 Legend Double Dagger 15.3 1.2 38 21 28 24.1 99.72     LegendNANA
16:00 Legend Double Dagger 15.2 1.1 38 21 28 24.1 99.61     Mostly Cloudy
17:00 Legend Double Dagger 14.3 0.6 39 21 35 24.1 99.57     LegendNANA
18:00 Legend Double Dagger 14.0 1.0 41 21 32 24.1 99.43     LegendNANA
19:00 Legend Double Dagger 14.5 0.8 39 22 34 24.1 99.37     Mostly Cloudy
20:00 Legend Double Dagger 14.9 1.2 39 22 32 24.1 99.33     LegendNANA
21:00 Legend Double Dagger 15.1 2.0 41 24 37 24.1 99.46     LegendNANA
22:00 Legend Double Dagger 15.2 2.8 43 23 39 24.1 99.40     Cloudy
23:00 Legend Double Dagger 14.4 4.5 51 24 31 24.1 99.45     Rain Showers

Notes on Data Quality.

Legend

  • E = Estimated
  • M = Missing
  • NA = Not Available
  • ‡ = Partner data that is not subject to review by the National Climate Archives
Date modified: